Flight Track Log - Related Links

Times and Time Zones

All times are in EST time to prevent confusion due to time zone crossing. See the SCX8700 flight status page for this flight to view local times or setup timezone preferences in your user account.

Time Position Orientation Groundspeed Altitude Reporting Facility
EST Latitude Longitude Course Direction KTS MPH feet Rate Location/Type
05:11PM 44.9414 -93.2258 115° Southeast 193 222 5,500  Level Minneapolis Center
05:12PM 44.9906 -93.1517 47° Northeast 259 298 7,000 2,098 Climbing Minneapolis Center
05:13PM 45.0172 -93.0517 69° East 306 352 9,800 3,148 Climbing Minneapolis Center
05:14PM 44.9603 -92.9478 128° Southeast 332 382 13,400 3,366 Climbing Minneapolis Center
05:15PM 44.8953 -92.8322 128° Southeast 369 425 16,700 2,341 Climbing Minneapolis Center
05:16PM 44.6217 -92.5893 115° Southeast  Level Estimated
05:16PM 44.8325 -92.6886 122° Southeast 440 506 18,200  Level Minneapolis Center
05:17PM 44.7672 -92.5294 120° Southeast 462 532 20,700 2,323 Climbing Minneapolis Center
05:18PM 44.6961 -92.3633 121° Southeast 485 558 23,000 2,544 Climbing Minneapolis Center
05:19PM 44.6225 -92.1869 120° Southeast 511 588 26,000 3,268 Climbing Minneapolis Center
05:20PM 44.5375 -91.9892 121° Southeast 496 571 29,700 2,803 Climbing Minneapolis Center
05:21PM 44.4658 -91.8208 121° Southeast 498 573 31,700 1,951 Climbing Minneapolis Center
05:22PM 44.3928 -91.6514 121° Southeast 506 582 33,700 1,610 Climbing Minneapolis Center
05:24PM 44.3189 -91.4789 121° Southeast 512 589 35,000 639 Climbing Minneapolis Center
05:25PM 44.2369 -91.2911 121° Southeast 516 594 35,000  Level Minneapolis Center
05:26PM 44.1692 -91.1456 123° Southeast 518 596 35,000  Level Minneapolis Center
05:27PM 44.0792 -90.9964 130° Southeast 509 586 35,000  Level Minneapolis Center
05:28PM 43.9719 -90.8108 129° Southeast 510 587 35,000  Level Minneapolis Center
05:29PM 43.8822 -90.6564 129° Southeast 510 587 35,000  Level Minneapolis Center
05:30PM 43.7972 -90.5133 129° Southeast 511 588 35,000  Level Minneapolis Center
05:31PM 43.7017 -90.3511 129° Southeast 512 589 35,000  Level Minneapolis Center
05:32PM 43.6178 -90.2089 129° Southeast 512 589 35,000  Level Minneapolis Center
05:33PM 43.5283 -90.0575 129° Southeast 512 589 35,000  Level Minneapolis Center
05:34PM 43.4358 -89.9050 130° Southeast 515 593 35,000  Level Minneapolis Center
05:35PM 43.3425 -89.7536 130° Southeast 516 594 35,000  Level Chicago Center
05:36PM 43.2339 -89.5722 129° Southeast 514 592 35,000  Level Chicago Center
05:37PM 43.1428 -89.4233 130° Southeast 513 590 35,000  Level Chicago Center
05:38PM 43.0514 -89.2739 130° Southeast 513 590 35,000  Level Chicago Center
05:39PM 42.9589 -89.1228 130° Southeast 519 597 35,000  Level Chicago Center
05:40PM 42.8669 -88.9756 130° Southeast 517 595 35,000  Level Chicago Center
05:41PM 42.7747 -88.8250 130° Southeast 519 597 35,000 -439 Level Chicago Center
05:42PM 42.6650 -88.6478 130° Southeast 517 595 34,100 -976 Descending Chicago Center
05:43PM 42.5792 -88.5131 131° Southeast 490 564 33,000 -1,500 Descending Chicago Center
05:44PM 42.4956 -88.3811 131° Southeast 469 540 31,000 -1,610 Descending Chicago Center
05:45PM 42.4089 -88.2464 131° Southeast 473 544 29,700 -976 Descending Chicago Center
05:46PM 42.3133 -88.0964 131° Southeast 478 550 29,000 -829 Descending Chicago Center
05:47PM 42.2278 -87.9558 129° Southeast 482 555 28,000 -1,512 Descending Chicago Center
05:48PM 42.1872 -87.7875 108° East 475 547 25,900 -2,000 Descending Chicago Center
05:49PM 42.1728 -87.6133 96° East 468 539 23,900 -1,951 Descending Chicago Center
05:50PM 42.1617 -87.4453 95° East 455 524 21,900 -1,839 Descending Chicago Center
05:51PM 42.1519 -87.2814 95° East 441 507 20,100 -1,902 Descending Chicago Center
05:52PM 42.1389 -87.1042 96° East 420 483 18,000 -1,756 Descending Chicago Center
05:53PM 42.1300 -86.9708 95° East 418 481 16,500 -1,902 Descending Chicago Center
05:54PM 42.1211 -86.7853 94° East 415 478 14,100 -1,902 Descending Chicago Center
05:55PM 42.1008 -86.6561 102° East 399 459 12,600 -1,403 Descending Chicago Center
05:56PM 42.0422 -86.5458 126° Southeast 362 417 11,200 -1,171 Descending Chicago Center
05:57PM 41.9833 -86.4417 127° Southeast 354 407 10,200 -1,268 Descending Chicago Center
05:58PM 41.9347 -86.3450 124° Southeast 322 371 8,600 -1,463 Descending Chicago Center
05:59PM 41.8839 -86.2567 128° Southeast 302 348 7,200 -1,902 Descending Chicago Center
06:00PM 41.8292 -86.1636 128° Southeast 272 313 4,700 -1,805 Descending Chicago Center
06:01PM 41.7750 -86.1292 155° Southeast 247 284 3,500 -1,073 Descending Chicago Center
06:02PM 41.7208 -86.1258 177° South 215 247 2,500 -585 Descending Chicago Center
06:03PM 41.7044 -86.1844 249° West 189 217 2,300 -341 Descending Chicago Center
06:04PM 41.7042 -86.2408 270° West 168 193 1,800 -341 Descending Chicago Center
06:05PM 41.7039 -86.2919 270° West 162 186 1,600 -197 Descending Chicago Center

Login

Don't have an account? Register now (free) for customized features, flight alerts, and more!